Weather History for New Orleans Lakefront, LA

Change the Weather History Date:

Monday, November 4, 2013

  Actual Average Record
Temperature  
Mean Temperature 63 °F 66 °F  
Max Temperature 75 °F 75 °F 85 °F (1946)
Min Temperature 51 °F 57 °F 32 °F (1966)
Degree Days  
Heating Degree Days 2 3  
Month to date heating degree days 6 9  
Since 1 July heating degree days 11 34  
Cooling Degree Days 0 3  
Month to date cooling degree days 4 15  
Year to date cooling degree days 2912 2924  
Growing Degree Days 16 (Base 50)    
Moisture  
Dew Point 58 °F    
Average Humidity 68    
Maximum Humidity 87    
Minimum Humidity 49    
Precipitation  
Precipitation 0.00 in 0.14 in 3.44 in (1992)
Month to date precipitation 0.04 0.54  
Year to date precipitation 61.32 53.26  
Snow  
Snow 0.00 in - - ()
Month to date snowfall 0.0  
Since 1 July snowfall 0.0  
Since 1 September snowfall 0.0  
Snow Depth 0.00 in    
Sea Level Pressure  
Sea Level Pressure 30.17 in    
Wind  
Wind Speed 9 mph (ENE)    
Max Wind Speed 18 mph    
Max Gust Speed 29 mph    
Visibility 10 miles    
Events      
T = Trace of Precipitation, MM = Missing Value Source: NWS Daily Summary

Daily Weather History Graph

Daily Weather History Graph

Search for Another Location

Airport:

Trip Planner

Search our weather history database for the weather conditions in past years. The results will help you decide how hot, cold, wet, or windy it might be!

Date:

Astronomy

Nov. 04, 2013 Rise Set
Actual Time 6:16 AM CST 5:10 PM CST
Civil Twilight 5:51 AM CST 5:35 PM CST
Nautical Twilight 5:23 AM CST 6:03 PM CST
Astronomical Twilight 4:55 AM CST 6:31 PM CST
Moon 7:22 AM CST (11/4) 6:20 PM CST (11/4)
Length of Visible Light 11h 43m
Length of Day
10h 53m
New Moon, 2% of the Moon is Illuminated
Nov 4
New Moon
Nov 9
First Quarter
Nov 17
Full
Nov 25
Last Quarter
Dec 2
New

Hourly Weather History & Observations

Time (CST) Temp. Dew Point Humidity Pressure Visibility Wind Dir Wind Speed Gust Speed Precip Events Conditions
12:53 AM 62.1 °F 51.1 °F 67% 30.16 in 10.0 mi NE 9.2 mph - N/A   Clear
1:53 AM 62.1 °F 53.1 °F 72% 30.14 in 10.0 mi ENE 8.1 mph - N/A   Scattered Clouds
2:53 AM 62.1 °F 53.1 °F 72% 30.14 in 10.0 mi ENE 10.4 mph - N/A   Overcast
3:53 AM 63.0 °F 54.0 °F 72% 30.15 in 10.0 mi NE 11.5 mph - N/A   Overcast
4:53 AM 63.0 °F 53.1 °F 70% 30.15 in 10.0 mi ENE 12.7 mph - N/A   Overcast
5:53 AM 61.0 °F 53.1 °F 75% 30.16 in 10.0 mi ENE 9.2 mph - N/A   Overcast
6:53 AM 62.1 °F 54.0 °F 75% 30.18 in 10.0 mi East 8.1 mph - N/A   Overcast
7:53 AM 63.0 °F 55.0 °F 75% 30.21 in 10.0 mi ENE 8.1 mph - N/A   Overcast
8:53 AM 63.0 °F 55.0 °F 75% 30.22 in 10.0 mi NE 8.1 mph - N/A   Overcast
9:53 AM 64.9 °F 55.9 °F 73% 30.23 in 10.0 mi ENE 11.5 mph - N/A   Overcast
10:53 AM 66.0 °F 57.0 °F 73% 30.22 in 10.0 mi ENE 10.4 mph - N/A   Overcast
11:53 AM 68.0 °F 57.0 °F 68% 30.21 in 10.0 mi ENE 9.2 mph - N/A   Overcast
12:53 PM 69.1 °F 57.9 °F 68% 30.18 in 10.0 mi East 15.0 mph - N/A   Scattered Clouds
1:53 PM 70.0 °F 57.9 °F 65% 30.15 in 10.0 mi East 19.6 mph - N/A   Clear
2:53 PM 70.0 °F 60.1 °F 71% 30.15 in 10.0 mi East 19.6 mph - N/A   Clear
3:53 PM 70.0 °F 61.0 °F 73% 30.14 in 10.0 mi East 21.9 mph 26.5 mph N/A   Clear
4:53 PM 69.1 °F 62.1 °F 78% 30.13 in 10.0 mi East 18.4 mph 24.2 mph N/A   Scattered Clouds
5:53 PM 68.0 °F 63.0 °F 84% 30.16 in 10.0 mi East 13.8 mph - N/A   Mostly Cloudy
6:53 PM 66.9 °F 63.0 °F 87% 30.16 in 10.0 mi East 12.7 mph - N/A   Clear
7:53 PM 68.0 °F 63.0 °F 84% 30.16 in 10.0 mi East 10.4 mph - N/A   Mostly Cloudy
8:53 PM 69.1 °F 62.1 °F 78% 30.16 in 10.0 mi East 15.0 mph - N/A   Scattered Clouds
9:53 PM 68.0 °F 62.1 °F 81% 30.16 in 10.0 mi East 13.8 mph - N/A   Overcast
10:53 PM 68.0 °F 59.0 °F 73% 30.15 in 10.0 mi ENE 17.3 mph - N/A   Overcast
11:53 PM 68.0 °F 59.0 °F 73% 30.14 in 10.0 mi East 15.0 mph - N/A   Overcast